DMSP 5D-2 F13 DEB

Satellite information

Favourite Embed

Satellite Type and Status

DEBRISIN ORBIT

Key statistics

Satellite DMSP 5D-2 F13 DEB at a glance.

Uptime

11167

Days in orbit

Revolutions

≈ 14.3

Per day

Orbit

SSO

Sun Synchronous Orbit

Inclination

98.6

Latest

Satellite identification and parameters

Extended collection of information and parameters for DMSP 5D-2 F13 DEB.

Object identification

Identified? True

Debris? True

Object name: DMSP 5D-2 F13 DEB

International designator: 1995-015AA

Object number (NORAD): 40413

Object ID (CCSDS): 40413

Country: UNITED STATES OF AMERICA (US)

Current information (Y/N): Y

RCS size: SMALL

Orbital parameters

Period: 100.587 minutes

Inclination: 98.6414 deg

SMA: 7164.528 km

Apoapsis: 794.781 km

Periapsis: 778.004 km

RAAN: 316.1283 deg

Eccentricy: 0.00117087

Argument of periapsis: 277.1326 deg

Mean anomaly: 82.8526 deg

Mean motion: 14.31599114 rev/day

Mean motion (dot): 0.0000386 rev/day2

B* drag term: 0.0014650652 1/REarth

Two-line elements (TLE)

Creation date: Oct. 18, 2025, 10:30 a.m.

Reference frame: TEME

Reference center: EARTH

Epoch: Oct. 18, 2025, 12:22 a.m. UTC

TLE line 0: 0 DMSP 5D-2 F13 DEB

TLE line 1: 1 40413U 95015AA 25291.01567636 .00003860 00000-0 14651-2 0 9991

TLE line 2: 2 40413 98.6414 316.1283 0011709 277.1326 82.8526 14.31599114552681

Live tracking on map

Real-time ground track for satellite DMSP 5D-2 F13 DEB.

In-orbit conjunctions

A list of the most updated potential collisions computed for object DMSP 5D-2 F13 DEB.

Target Orbit TCA Probability of collision Miss distance Type
COSMOS 1867 COOLANT LEO 2025-09-13 10:33:15 0.0001585491 97.0 (m) DEBRIS
SL-8 R/B LEO 2025-07-19 22:53:02 0.0007439299 79.0 (m) ROCKET BODY
MINOTAUR R/B SSO 2025-01-12 21:11:37 0.0001363397 425.0 (m) ROCKET BODY
DMSP 5D-2 F13 DEB SSO 2024-11-08 15:07:57 0.0001034068 767.0 (m) DEBRIS

Associated space launch

Military meteorological satellite

DMSP 5D-2 F13 DEB was lifted into orbit during the mission ‘Atlas E | DMSP-5D2 F13’, on board a Atlas E space rocket.

The launch took place on March 24, 1995, 2:05 p.m. from Space Launch Complex 3W.

For more information about the launch, click the button.

Launch to space Atlas E | DMSP-5D2 F13
Atlas E | DMSP-5D2 F13

Agency: N/A

Status: Launch Successful

Launch date: March 24, 1995, 2:05 p.m. UTC

Rocket: Atlas E

Launch pad: Space Launch Complex 3W

Location: Vandenberg SFB, CA, USA

...

Latest news about this satellite

There are no fresh news available about this satellite. Check back as we update our databases every day.


Newsletter sign-up

Weekly statistics, charts and insights to help you stay on top of the space industry.